When you browse on this site, cookies collect data to enhance your experience and personalize the content and advertising you see.
Visit our Privacy Policy to learn more. By continuing to use the site, you agree to this use of cookies and data.
  • în România
  • Lista ţărilor
  • Pe 7 zile
  • Temperatura apei
  • Hartă satelitară
  • Meteo pe hartă
  • Widget-uri
  • user-avatar
    Intrare

    Meteo pe oră la Mandelieu-la-Napoule

    Astăzi, 19 Aprilie, Vineri

    Timp Temperatura Precipitaţii Vânt Presiune Umiditate
    00:00 +15°C° 0 mm 5 m/s 759 mmHg 57%
    01:00 +15°C° 0 mm 5 m/s 759 mmHg 61%
    02:00 +14°C° 0 mm 5 m/s 759 mmHg 64%
    03:00 +14°C° 0 mm 5 m/s 759 mmHg 68%
    04:00 +14°C° 0 mm 5 m/s 759 mmHg 64%
    05:00 +14°C° 0 mm 5 m/s 760 mmHg 60%
    06:00 +15°C° 0 mm 4 m/s 760 mmHg 57%
    07:00 +16°C° 0 mm 5 m/s 760 mmHg 49%
    08:00 +19°C° 0 mm 6 m/s 760 mmHg 41%
    09:00 +21°C° 0 mm 7 m/s 761 mmHg 33%
    10:00 +21°C° 0 mm 7 m/s 761 mmHg 33%
    11:00 +22°C° 0 mm 8 m/s 761 mmHg 33%
    12:00 +22°C° 0 mm 8 m/s 761 mmHg 32%
    13:00 +22°C° 0 mm 8 m/s 761 mmHg 34%
    14:00 +22°C° 0 mm 7 m/s 761 mmHg 36%
    15:00 +22°C° 0 mm 7 m/s 760 mmHg 37%
    16:00 +20°C° 0 mm 6 m/s 760 mmHg 43%
    17:00 +19°C° 0 mm 5 m/s 760 mmHg 49%
    18:00 +18°C° 0 mm 4 m/s 760 mmHg 55%
    19:00 +17°C° 0 mm 4 m/s 761 mmHg 58%
    20:00 +15°C° 0 mm 4 m/s 761 mmHg 60%
    21:00 +16°C° 0 mm 3 m/s 762 mmHg 63%
    22:00 +14°C° 0 mm 3 m/s 761 mmHg 61%
    23:00 +14°C° 0 mm 3 m/s 761 mmHg 58%

    Mâine, 20 Aprilie, Sâmbătă

    Timp Temperatura Precipitaţii Vânt Presiune Umiditate
    00:00 +14°C° 0 mm 3 m/s 761 mmHg 56%
    01:00 +13°C° 0 mm 3 m/s 761 mmHg 55%
    02:00 +13°C° 0 mm 3 m/s 761 mmHg 53%
    03:00 +13°C° 0 mm 3 m/s 760 mmHg 52%
    04:00 +13°C° 0 mm 3 m/s 760 mmHg 51%
    05:00 +14°C° 0 mm 3 m/s 760 mmHg 51%
    06:00 +14°C° 0 mm 3 m/s 760 mmHg 51%
    07:00 +17°C° 0 mm 4 m/s 760 mmHg 46%
    08:00 +19°C° 0 mm 5 m/s 760 mmHg 42%
    09:00 +21°C° 0 mm 6 m/s 760 mmHg 38%
    10:00 +21°C° 0 mm 7 m/s 759 mmHg 36%
    11:00 +22°C° 0 mm 8 m/s 759 mmHg 35%
    12:00 +23°C° 0 mm 8 m/s 759 mmHg 33%
    13:00 +23°C° 0 mm 8 m/s 758 mmHg 34%
    14:00 +22°C° 0 mm 8 m/s 758 mmHg 34%
    15:00 +22°C° 0 mm 8 m/s 758 mmHg 35%
    16:00 +21°C° 0 mm 7 m/s 758 mmHg 38%
    17:00 +20°C° 0 mm 6 m/s 757 mmHg 42%
    18:00 +19°C° 0 mm 6 m/s 757 mmHg 45%
    19:00 +19°C° 0 mm 5 m/s 758 mmHg 43%
    20:00 +17°C° 0 mm 5 m/s 758 mmHg 41%
    21:00 +17°C° 0 mm 5 m/s 758 mmHg 40%
    22:00 +17°C° 0 mm 5 m/s 758 mmHg 40%
    23:00 +17°C° 0 mm 5 m/s 758 mmHg 41%

    Poimâine, 21 Aprilie, Duminică

    Timp Temperatura Precipitaţii Vânt Presiune Umiditate
    00:00 +16°C° 0 mm 5 m/s 757 mmHg 41%
    01:00 +17°C° 0 mm 4 m/s 757 mmHg 42%
    02:00 +17°C° 0 mm 4 m/s 757 mmHg 43%
    03:00 +17°C° 0 mm 4 m/s 756 mmHg 43%
    04:00 +17°C° 0 mm 4 m/s 756 mmHg 46%
    05:00 +17°C° 0 mm 3 m/s 756 mmHg 48%
    06:00 +17°C° 0 mm 3 m/s 756 mmHg 50%
    07:00 +17°C° 0.2 mm 3 m/s 756 mmHg 50%
    08:00 +18°C° 0.2 mm 4 m/s 756 mmHg 51%
    09:00 +18°C° 0.2 mm 4 m/s 755 mmHg 51%
    10:00 +19°C° 0.1 mm 5 m/s 755 mmHg 47%
    11:00 +20°C° 0.1 mm 5 m/s 755 mmHg 43%
    12:00 +21°C° 0.1 mm 6 m/s 755 mmHg 39%
    13:00 +22°C° 0 mm 7 m/s 754 mmHg 38%
    14:00 +22°C° 0 mm 7 m/s 754 mmHg 36%
    15:00 +22°C° 0 mm 8 m/s 753 mmHg 35%
    16:00 +21°C° 0 mm 7 m/s 753 mmHg 38%
    17:00 +20°C° 0 mm 6 m/s 752 mmHg 42%
    18:00 +19°C° 0 mm 5 m/s 752 mmHg 45%
    19:00 +17°C° 0 mm 5 m/s 752 mmHg 46%
    20:00 +16°C° 0 mm 5 m/s 752 mmHg 47%
    21:00 +16°C° 0 mm 5 m/s 752 mmHg 47%
    22:00 +16°C° 0 mm 5 m/s 751 mmHg 45%
    23:00 +16°C° 0 mm 5 m/s 751 mmHg 44%

    22 Aprilie, Luni

    Timp Temperatura Precipitaţii Vânt Presiune Umiditate
    00:00 +16°C° 0 mm 6 m/s 750 mmHg 42%
    01:00 +16°C° 0 mm 6 m/s 749 mmHg 40%
    02:00 +16°C° 0 mm 6 m/s 748 mmHg 39%
    03:00 +16°C° 0 mm 6 m/s 748 mmHg 37%
    04:00 +16°C° 0 mm 6 m/s 747 mmHg 39%
    05:00 +16°C° 0 mm 6 m/s 747 mmHg 42%
    06:00 +16°C° 0 mm 6 m/s 746 mmHg 45%
    07:00 +18°C° 0 mm 7 m/s 746 mmHg 39%
    08:00 +21°C° 0 mm 8 m/s 746 mmHg 33%
    09:00 +23°C° 0 mm 9 m/s 745 mmHg 28%
    10:00 +23°C° 0 mm 9 m/s 745 mmHg 28%
    11:00 +24°C° 0 mm 10 m/s 744 mmHg 28%
    12:00 +24°C° 0 mm 10 m/s 744 mmHg 29%
    13:00 +24°C° 0 mm 11 m/s 743 mmHg 30%
    14:00 +23°C° 0 mm 11 m/s 742 mmHg 31%
    15:00 +23°C° 0 mm 11 m/s 742 mmHg 32%
    16:00 +21°C° 0 mm 10 m/s 742 mmHg 37%
    17:00 +20°C° 0 mm 8 m/s 742 mmHg 42%
    18:00 +17°C° 0 mm 7 m/s 741 mmHg 47%
    19:00 +17°C° 0.1 mm 7 m/s 742 mmHg 50%
    20:00 +17°C° 0.1 mm 6 m/s 742 mmHg 54%
    21:00 +16°C° 0.1 mm 6 m/s 742 mmHg 57%
    22:00 +16°C° 0.2 mm 5 m/s 742 mmHg 60%
    23:00 +15°C° 0.2 mm 5 m/s 741 mmHg 63%

    23 Aprilie, Marţi

    Timp Temperatura Precipitaţii Vânt Presiune Umiditate
    00:00 +15°C° 0.2 mm 4 m/s 741 mmHg 66%
    01:00 +15°C° 0 mm 4 m/s 741 mmHg 67%
    02:00 +14°C° 0 mm 3 m/s 740 mmHg 67%
    03:00 +14°C° 0 mm 3 m/s 740 mmHg 68%
    04:00 +15°C° 0 mm 2 m/s 740 mmHg 69%
    05:00 +15°C° 0 mm 2 m/s 740 mmHg 69%
    06:00 +16°C° 0 mm 2 m/s 741 mmHg 70%
    07:00 +17°C° 0 mm 2 m/s 741 mmHg 66%
    08:00 +18°C° 0 mm 2 m/s 741 mmHg 61%
    09:00 +19°C° 0 mm 3 m/s 742 mmHg 57%
    10:00 +20°C° 0 mm 3 m/s 742 mmHg 56%
    11:00 +20°C° 0 mm 4 m/s 743 mmHg 55%
    12:00 +20°C° 0 mm 5 m/s 743 mmHg 54%
    13:00 +20°C° 0 mm 4 m/s 743 mmHg 57%
    14:00 +20°C° 0 mm 4 m/s 744 mmHg 60%
    15:00 +19°C° 0 mm 4 m/s 744 mmHg 62%
    16:00 +18°C° 0 mm 3 m/s 744 mmHg 68%
    17:00 +17°C° 0 mm 3 m/s 745 mmHg 73%
    18:00 +17°C° 0 mm 2 m/s 746 mmHg 78%
    19:00 +16°C° 0 mm 2 m/s 747 mmHg 79%
    20:00 +16°C° 0 mm 2 m/s 747 mmHg 79%
    21:00 +15°C° 0 mm 2 m/s 748 mmHg 80%
    22:00 +16°C° 0 mm 2 m/s 749 mmHg 77%
    23:00 +16°C° 0 mm 2 m/s 749 mmHg 73%

    24 Aprilie, Miercuri

    Timp Temperatura Precipitaţii Vânt Presiune Umiditate
    00:00 +16°C° 0 mm 2 m/s 749 mmHg 70%
    01:00 +16°C° 0 mm 2 m/s 749 mmHg 73%
    02:00 +15°C° 0 mm 2 m/s 750 mmHg 77%
    03:00 +15°C° 0 mm 2 m/s 750 mmHg 81%
    04:00 +15°C° 0.1 mm 2 m/s 750 mmHg 81%
    05:00 +16°C° 0.1 mm 3 m/s 751 mmHg 81%
    06:00 +16°C° 0.1 mm 3 m/s 751 mmHg 81%
    07:00 +17°C° 0 mm 4 m/s 751 mmHg 75%
    08:00 +18°C° 0 mm 4 m/s 751 mmHg 68%
    09:00 +19°C° 0 mm 5 m/s 751 mmHg 61%
    10:00 +20°C° 0 mm 6 m/s 751 mmHg 57%
    11:00 +21°C° 0 mm 7 m/s 751 mmHg 53%
    12:00 +22°C° 0 mm 8 m/s 751 mmHg 48%
    13:00 +22°C° 0 mm 8 m/s 751 mmHg 49%
    14:00 +22°C° 0 mm 8 m/s 750 mmHg 49%
    15:00 +22°C° 0 mm 8 m/s 750 mmHg 50%
    16:00 +21°C° 0 mm 8 m/s 750 mmHg 52%
    17:00 +21°C° 0 mm 8 m/s 750 mmHg 55%
    18:00 +20°C° 0 mm 8 m/s 750 mmHg 57%
    19:00 +18°C° 0 mm 7 m/s 750 mmHg 57%
    20:00 +18°C° 0 mm 7 m/s 750 mmHg 58%
    21:00 +19°C° 0 mm 6 m/s 750 mmHg 58%
    22:00 +19°C° 0.2 mm 6 m/s 750 mmHg 60%
    23:00 +19°C° 0.2 mm 6 m/s 750 mmHg 63%
    Arată mai mult